Terminal Aerodrome Forecast
Issued by NWS Green Bay, WI

Home | Current Version | Previous Version | Graphics & Text | Print | Product List | Glossary On
Versions: 1 2 3 4 5 6 7 8 9 10 11 12 13 14 15 16 17
000
FTUS43 KGRB 261739
TAFGRB
TAF
KGRB 261739Z 2618/2718 03015G25KT P6SM BKN015
     FM262100 04012G19KT P6SM BKN025 BKN070
     FM270000 04011KT P6SM SCT080
     FM270700 03007KT P6SM SKC
     FM271600 06014G23KT P6SM SCT250=

USA.gov is the U.S. government's official web portal to all federal, state and local government web resources and services.